Regional Weather Roundup
Issued by NWS

Home | Current Version | Previous Version | Graphics & Text | Print | Product List | Glossary On
Versions: 1 2 3 4 5 6 7 8 9 10 11 12 13 14 15 16 17 18 19 20 21 22 23 24 25 26 27 28 29 30 31 32 33 34 35 36 37 38 39 40 41 42 43 44 45 46 47 48 49 50
000
ASUS43 KLOT 021521
RWRIL

ILLINOIS REGIONAL WEATHER ROUNDUP
NATIONAL WEATHER SERVICE CHICAGO/ROMEOVILLE IL
1000 AM CDT WED SEP 02 2015

NOTE: "FAIR" INDICATES FEW OR NO CLOUDS BELOW 12,000 FEET WITH NO
SIGNIFICANT WEATHER AND/OR OBSTRUCTIONS TO VISIBILITY.

* THESE STATIONS ARE NOT UNDER NWS QUALITY CONTROL. THEY ALSO MAY NOT
  REPORT WEATHER SUCH AS PRECIPITATION OR FOG.

ILZ001-002-007-009-015-016-024-021600-
NORTHWEST ILLINOIS

CITY           SKY/WX    TMP DP  RH WIND       PRES   REMARKS
MOLINE         PTSUNNY   81  70  69 SW9       30.04F HX  84
STERLING*      MOSUNNY   84  73  70 SW6       30.03S HX  91
SAVANNA*       PTSUNNY   79  68  68 S7        30.03F HX  81
$$

ILZ003-004-008-010-011-017-018-021600-
NORTH CENTRAL ILLINOIS

CITY           SKY/WX    TMP DP  RH WIND       PRES   REMARKS
ROCKFORD       MOSUNNY   80  70  71 SW7       30.06F HX  83
FREEPORT*      MOSUNNY   79  69  71 SW9       30.06S HX  82
ROCHELLE*      MOSUNNY   79  71  77 SW6       30.07S HX  82
DE KALB*       SUNNY     80  71  74 SW9       30.08S HX  84
PERU*          SUNNY     81  70  69 SW10      30.08S HX  84
$$

ILZ005-006-012>014-019>023-021600-
NORTHEAST ILLINOIS

CITY           SKY/WX    TMP DP  RH WIND       PRES   REMARKS
CHICAGO-OHARE  MOSUNNY   80  69  69 SW7       30.06F HX  83
CHICAGO-MIDWAY MOSUNNY   81  70  69 SW7       30.06F HX  84
AURORA         SUNNY     80  71  74 SW7       30.08S HAZE    HX  84
LANSING*       SUNNY     82  70  67 SW3       30.08S HX  86
JOLIET*        SUNNY     82  73  74 W7        30.08S HX  87
WAUKEGAN       SUNNY     80  70  71 VRB5      30.04F HX  83
DUPAGE AIRPORT SUNNY     80  70  71 SW10      30.06F HX  83
KANKAKEE*      SUNNY     83  73  69 W6        30.09S HX  89
WHEELING       SUNNY     82  68  62 SW7       30.07S HX  85
MORRIS*        SUNNY     81  72  74 W7        30.06S HX  85
ROMEOVILLE*    SUNNY     80  70  71 W5        30.07F HX  83
NORTHERLY ISL    N/A     80  68  66 SW3         N/A  HX  83
$$

LMZ740>746-021600-
SOUTHERN LAKE MICHIGAN

STATION/POSITION SKY/WX   TEMP    WIND        PRES    VSBY  WAVE
                          AIR SEA DIR/SP/G                  HT/PER
                          (F)     (DEG/KT/KT) (MB)    (MI)  (FT/S)
SOUTHERN BUOY              72 70  210/ 10/ 12 1016.8F
WILMETTE HARBOR            71 60  330/  2/  4   N/A           0
HARRISON CRIB              77     200/  7/  8   N/A
BURNHAM HARBOR             81     260/  2/  8   N/A
CALUMET HARBOR             78     230/  5/  8   N/A
BURNS HARBOR               76     230/  8/ 10 1019.0S
MICHIGAN CITY              77     210/  9/  9   N/A
MICHIGAN CITY 6N           75 72  240/  8/  8   N/A           1
ST. JOSEPH                 73 72  270/ 10/ 10   N/A           1/ 3
$$

ILZ025>027-034>036-040-047-049-050-058-095>099-021600-
WEST-CENTRAL ILLINOIS

CITY           SKY/WX    TMP DP  RH WIND       PRES   REMARKS
QUINCY         PTSUNNY   81  70  69 SW7       30.08F HX  84
GALESBURG*     PTSUNNY   79  72  78 S8        30.07F HX  82
MACOMB*        PTSUNNY   81  71  70 SW5       30.09F HX  85
JACKSONVILLE*  SUNNY     84  71  65 W6        30.10S HX  89
PITTSFIELD*    SUNNY     83  70  64 W7        30.11S HX  87
$$

ILZ028>032-037-038-041>044-048-051>054-059>061-021600-
CENTRAL ILLINOIS

CITY           SKY/WX    TMP DP  RH WIND       PRES   REMARKS
PONTIAC        SUNNY     82  75  78 W6        30.10S HX  89
BLOOMINGTON    SUNNY     82  74  77 W7        30.12S HX  88
DECATUR        SUNNY     84  70  62 SW9       30.11F HX  88
PEORIA         MOSUNNY   83  71  67 SW7       30.08F HX  87
LACON*         MOSUNNY   80  71  74 SW5       30.07S HX  84
LINCOLN*       MOSUNNY   83  71  64 SW6       30.10R HX  88
SPRINGFIELD    SUNNY     84  70  62 W10G17    30.11R HX  88
TAYLORVILLE    SUNNY     81  70  69 SW6       30.11S HX  84
$$

ILZ033-039-045-046-055>057-062-063-021600-
EAST-CENTRAL ILLINOIS

CITY           SKY/WX    TMP DP  RH WIND       PRES   REMARKS
CHAMPAIGN      SUNNY     81  72  74 SW5       30.12F HX  85
RANTOUL*       SUNNY     83  74  73 W9        30.11S HX  89
MATTOON        SUNNY     83  70  64 VRB7      30.13R HX  87
PARIS*         SUNNY     83  72  69 SW6       30.13S HX  88
$$

ILZ079-100>102-021600-
SOUTHWEST ILLINOIS

CITY           SKY/WX    TMP DP  RH WIND       PRES   REMARKS
ALTON          SUNNY     81  70  69 CALM      30.11  HX  84
BELLEVILLE     SUNNY     83  70  66 VRB2      30.10S HX  87
CAHOKIA*       SUNNY     83  68  60 SW7       30.11R HX  86
SPARTA*        SUNNY     82  72  71 S5        30.13S HX  86
$$

ILZ064>066-069>071-074>076-080>082-084>086-088>090-092>094-021600-
SOUTH-CENTRAL ILLINOIS

CITY           SKY/WX    TMP DP  RH WIND       PRES   REMARKS
CARBONDALE     SUNNY     82  71  69 S7        30.13F HX  86
CAIRO*         SUNNY     80  75  83 CALM      30.13S HX  85
EFFINGHAM*     SUNNY     82  67  61 SW5       30.14S HX  84
MARION         SUNNY     82  72  69 SW7       30.15S HX  87
MT. VERNON     SUNNY     84  70  61 S8        30.14R HX  88
CENTRALIA*     SUNNY     83  73  71 S6        30.12S HX  89
SALEM*         SUNNY     85  70  61 S7        30.13R HX  89
METROPOLIS*    SUNNY     84  72  68 CALM      30.14S HX  89
$$

ILZ067-068-072-073-078-083-087-091-021600-
SOUTHEAST ILLINOIS

CITY           SKY/WX    TMP DP  RH WIND       PRES   REMARKS
LAWRENCEVILLE  SUNNY     84  69  60 SW6       30.14S HX  88
FLORA*         SUNNY     83  69  61 CALM      30.13S HX  87
FAIRFIELD*     SUNNY     82  71  68 SE3       30.12F HX  86
HARRISBURG*    SUNNY     83  70  64 CALM      30.14S HX  87
ROBINSON*      SUNNY     83  70  65 SW7       30.14S HX  87
CARMI*         SUNNY     82  71  69 S5        30.13S HX  86
$$

ABBREVIATIONS USED IN REMARKS
   TC - TEMPERATURE IN CELSIUS
  WCI - WIND CHILL INDEX
   HX - HEAT INDEX
  VSB - VISIBILITY
$$




USA.gov is the U.S. government's official web portal to all federal, state and local government web resources and services.